K5SVV Weather Reports


Display with metric or nautical units.
time (UTC)temp
F
wind
direction
speed
MPH
gust
MPH
rain 1hr
in
rain 24hr
in
rain mn
in
humidity
%
barometer
mb
20260505223826 85 159 0.0 0.0 0.00 0.00 0.00 75 1003.5
20260505223323 85 187 5.0 6.0 0.00 0.00 0.00 74 1003.3
20260505222819 85 198 4.0 6.0 0.00 0.00 0.00 73 1003.7
20260505222315 85 176 3.0 6.0 0.00 0.00 0.00 73 1003.7
20260505221813 85 197 5.0 8.0 0.00 0.00 0.00 73 1003.6
20260505221309 85 196 4.0 6.0 0.00 0.00 0.00 74 1003.5
20260505220806 85 194 6.0 9.0 0.00 0.00 0.00 73 1003.4
20260505220303 86 157 8.0 9.0 0.00 0.00 0.00 72 1003.6
20260505215802 86 186 5.0 6.0 0.00 0.00 0.00 71 1003.7
20260505215259 86 185 1.0 3.0 0.00 0.00 0.00 72 1003.6
20260505214756 87 175 8.0 9.0 0.00 0.00 0.00 71 1003.7
20260505214254 87 188 4.0 6.0 0.00 0.00 0.00 71 1003.4
20260505213751 86 195 8.0 9.0 0.00 0.00 0.00 71 1003.4
20260505213249 86 173 6.0 8.0 0.00 0.00 0.00 71 1003.7
20260505212744 86 179 6.0 8.0 0.00 0.00 0.00 71 1003.6
20260505212242 87 186 6.0 9.0 0.00 0.00 0.00 69 1003.6
20260505211738 87 190 5.0 7.0 0.00 0.00 0.00 71 1003.8
20260505211236 87 160 4.0 6.0 0.00 0.00 0.00 70 1003.8
20260505210732 86 193 4.0 6.0 0.00 0.00 0.00 72 1003.9
20260505210229 86 228 6.0 9.0 0.00 0.00 0.00 71 1004.0
20260505205726 86 181 7.0 10.0 0.00 0.00 0.00 71 1003.9
20260505205224 86 177 9.0 13.0 0.00 0.00 0.00 71 1003.7
20260505204720 86 174 2.0 3.0 0.00 0.00 0.00 71 1003.8
20260505204219 86 194 9.0 11.0 0.00 0.00 0.00 70 1004.3
20260505203715 87 197 6.0 7.0 0.00 0.00 0.00 70 1004.1
20260505203212 86 217 5.0 9.0 0.00 0.00 0.00 73 1004.3
20260505202708 86 193 10.0 14.0 0.00 0.00 0.00 71 1004.3
20260505202204 86 195 5.0 8.0 0.00 0.00 0.00 72 1004.3
20260505201701 86 213 5.0 7.0 0.00 0.00 0.00 73 1004.1
20260505201159 85 222 7.0 11.0 0.00 0.00 0.00 71 1004.4
20260505200657 85 184 8.0 11.0 0.00 0.00 0.00 74 1004.2
20260505200153 85 240 2.0 4.0 0.00 0.00 0.00 73 1004.4
20260505195649 85 198 6.0 8.0 0.00 0.00 0.00 72 1004.3
20260505195147 84 208 9.0 10.0 0.00 0.00 0.00 73 1004.4
20260505194644 84 220 9.0 11.0 0.00 0.00 0.00 73 1004.5
20260505194140 84 190 6.0 6.0 0.00 0.00 0.00 74 1004.6
20260505193636 84 203 5.0 6.0 0.00 0.00 0.00 73 1004.4
20260505193134 84 236 6.0 7.0 0.00 0.00 0.00 73 1004.5
20260505192632 84 199 7.0 8.0 0.00 0.00 0.00 74 1004.5
20260505192129 83 237 9.0 11.0 0.00 0.00 0.00 72 1004.7
20260505191628 84 205 11.0 14.0 0.00 0.00 0.00 73 1004.7
20260505191125 83 190 5.0 6.0 0.00 0.00 0.00 75 1004.7
20260505190621 83 206 8.0 10.0 0.00 0.00 0.00 75 1004.6
20260505190116 83 224 9.0 11.0 0.00 0.00 0.00 73 1004.8
20260505185613 83 168 6.0 8.0 0.00 0.00 0.00 74 1004.8
20260505185109 83 196 6.0 9.0 0.00 0.00 0.00 74 1004.9
20260505184606 83 199 6.0 8.0 0.00 0.00 0.00 74 1004.8
20260505184103 82 227 6.0 7.0 0.00 0.00 0.00 75 1005.0
20260505183559 82 182 8.0 11.0 0.00 0.00 0.00 75 1005.0
20260505183057 82 218 9.0 11.0 0.00 0.00 0.00 74 1005.0
20260505182553 82 224 6.0 7.0 0.00 0.00 0.00 75 1005.3
20260505182050 81 198 7.0 9.0 0.00 0.00 0.00 75 1005.3
20260505181546 82 211 9.0 11.0 0.00 0.00 0.00 76 1005.3
20260505181044 82 209 8.0 10.0 0.00 0.00 0.00 76 1005.3
20260505180539 81 223 6.0 8.0 0.00 0.00 0.00 76 1005.1
20260505180038 81 162 10.0 15.0 0.00 0.00 0.00 76 1005.4
20260505175537 81 191 7.0 8.0 0.00 0.00 0.00 77 1005.2
20260505175035 80 202 9.0 15.0 0.00 0.00 0.00 78 1005.1
20260505174532 79 202 11.0 14.0 0.00 0.00 0.00 78 1005.3
20260505174028 80 209 9.0 13.0 0.00 0.00 0.00 78 1005.3
20260505173525 80 198 5.0 7.0 0.00 0.00 0.00 79 1005.0
20260505173022 79 214 6.0 11.0 0.00 0.00 0.00 78 1005.0
20260505172520 80 245 5.0 7.0 0.00 0.00 0.00 78 1005.2
20260505172015 79 165 10.0 11.0 0.00 0.00 0.00 78 1004.9
20260505171510 79 176 9.0 11.0 0.00 0.00 0.00 81 1004.9
20260505171008 78 190 8.0 11.0 0.00 0.00 0.00 80 1005.2
20260505170505 78 175 11.0 14.0 0.00 0.00 0.00 81 1005.2
20260505170000 78 214 9.0 11.0 0.00 0.00 0.00 81 1005.2
20260505165456 78 183 8.0 10.0 0.00 0.00 0.00 82 1005.1
20260505164952 77 195 10.0 14.0 0.00 0.00 0.00 82 1004.9
20260505164448 78 200 14.0 17.0 0.00 0.00 0.00 81 1004.9
20260505163946 78 205 8.0 10.0 0.00 0.00 0.00 82 1005.0
20260505163445 77 238 11.0 16.0 0.00 0.00 0.00 81 1005.0
20260505162944 77 214 9.0 10.0 0.00 0.00 0.00 82 1005.3
20260505162439 77 194 12.0 16.0 0.00 0.00 0.00 82 1005.5
20260505161936 77 184 14.0 16.0 0.00 0.00 0.00 82 1005.2
20260505161433 77 191 9.0 10.0 0.00 0.00 0.00 82 1005.0
20260505160930 77 187 5.0 7.0 0.00 0.00 0.00 82 1005.3
20260505160429 76 155 6.0 8.0 0.00 0.00 0.00 83 1005.0
20260505152904 74 186 11.0 14.0 0.00 0.00 0.00 85 1005.1
20260505152356 74 207 7.0 9.0 0.00 0.00 0.00 85 1005.1
20260505151855 75 217 11.0 16.0 0.00 0.00 0.00 85 1005.3
20260505151352 74 235 8.0 11.0 0.00 0.00 0.00 85 1005.4
20260505150849 74 244 7.0 9.0 0.00 0.00 0.00 85 1005.7
20260505150347 75 161 15.0 18.0 0.00 0.00 0.00 84 1005.4
20260505140311 73 196 13.0 16.0 0.00 0.00 0.00 87 1004.8
20260505130229 70 215 10.0 13.0 0.00 0.00 0.00 91 1004.6
20260505124719 70 218 9.0 17.0 0.00 0.00 0.00 92 1004.2
20260505124216 70 196 8.0 10.0 0.00 0.00 0.00 92 1004.1
20260505123711 69 200 7.0 10.0 0.00 0.00 0.00 92 1004.3
20260505123208 69 190 7.0 9.0 0.00 0.00 0.00 92 1004.4
20260505122704 69 196 9.0 10.0 0.00 0.00 0.00 92 1004.2
20260505122201 69 195 8.0 10.0 0.00 0.00 0.00 92 1004.0
20260505121653 69 175 10.0 11.0 0.00 0.00 0.00 92 1004.1
20260505121149 69 189 14.0 17.0 0.00 0.00 0.00 93 1003.9
20260505120646 69 156 10.0 13.0 0.00 0.00 0.00 92 1003.9
20260505120141 69 210 10.0 14.0 0.00 0.00 0.00 93 1003.8
20260505115635 69 199 11.0 14.0 0.00 0.00 0.00 92 1003.9
20260505115133 69 208 13.0 16.0 0.00 0.00 0.00 92 1004.0
20260505114625 69 215 7.0 10.0 0.00 0.00 0.00 92 1003.9
20260505114120 69 215 6.0 10.0 0.00 0.00 0.00 92 1003.8
20260505113617 69 171 11.0 14.0 0.00 0.00 0.00 92 1003.8
20260505113113 69 208 6.0 9.0 0.00 0.00 0.00 92 1003.9
20260505112609 69 196 9.0 10.0 0.00 0.00 0.00 92 1004.0
20260505112108 69 192 6.0 9.0 0.00 0.00 0.00 92 1003.8
20260505111602 69 191 4.0 7.0 0.00 0.00 0.00 92 1003.9
20260505111058 69 211 7.0 11.0 0.00 0.00 0.00 92 1003.8
20260505110555 69 198 2.0 6.0 0.00 0.00 0.00 92 1003.9
20260505102027 69 169 9.0 14.0 0.00 0.00 0.00 92 1004.0
20260505101526 69 203 15.0 18.0 0.00 0.00 0.00 91 1003.9
20260505101022 69 207 9.0 13.0 0.00 0.00 0.00 91 1004.0
20260505100519 69 211 8.0 16.0 0.00 0.00 0.00 91 1003.9
20260505100016 69 184 8.0 11.0 0.00 0.00 0.00 91 1003.6
20260505095512 70 150 9.0 13.0 0.00 0.00 0.00 91 1003.9
20260505095008 70 193 10.0 11.0 0.00 0.00 0.00 91 1003.8
20260505094505 70 196 5.0 7.0 0.00 0.00 0.00 91 1004.1
20260505094001 70 185 6.0 7.0 0.00 0.00 0.00 91 1003.9
20260505093458 70 213 11.0 14.0 0.00 0.00 0.00 91 1004.0
20260505092955 70 200 11.0 14.0 0.00 0.00 0.00 91 1003.9
20260505092453 70 206 13.0 16.0 0.00 0.00 0.00 91 1004.2
20260505091950 70 192 13.0 16.0 0.00 0.00 0.00 91 1004.1
20260505091448 70 199 6.0 8.0 0.00 0.00 0.00 91 1004.1
20260505090946 70 209 10.0 14.0 0.00 0.00 0.00 91 1004.1
20260505090443 70 221 12.0 13.0 0.00 0.00 0.00 91 1004.0
20260505085940 69 211 14.0 18.0 0.00 0.00 0.00 91 1004.2
20260505085438 69 200 10.0 11.0 0.00 0.00 0.00 91 1004.0
20260505084936 69 179 14.0 17.0 0.00 0.00 0.00 91 1004.0
20260505084434 69 214 8.0 10.0 0.00 0.00 0.00 91 1003.9
20260505083932 69 200 13.0 16.0 0.00 0.00 0.00 91 1003.8
20260505083429 69 197 10.0 13.0 0.00 0.00 0.00 91 1003.9
20260505082925 69 203 12.0 14.0 0.00 0.00 0.00 91 1004.2
20260505082421 69 197 13.0 16.0 0.00 0.00 0.00 91 1004.2
20260505081918 69 157 9.0 10.0 0.00 0.00 0.00 91 1004.1
20260505081415 69 215 13.0 15.0 0.00 0.00 0.00 91 1004.0
20260505080911 69 184 10.0 14.0 0.00 0.00 0.00 91 1004.1
20260505080408 69 174 10.0 13.0 0.00 0.00 0.00 91 1004.3
20260505075903 69 161 9.0 10.0 0.00 0.00 0.00 91 1004.4
20260505075400 69 190 13.0 15.0 0.00 0.00 0.00 91 1004.5
20260505074858 69 209 6.0 9.0 0.00 0.00 0.00 91 1004.5
20260505074355 69 195 13.0 16.0 0.00 0.00 0.00 91 1004.3
20260505073851 69 195 9.0 13.0 0.00 0.00 0.00 91 1004.7
20260505073350 69 178 11.0 16.0 0.00 0.00 0.00 91 1004.5
20260505072847 69 192 12.0 16.0 0.00 0.00 0.00 90 1004.9
20260505072343 69 165 10.0 11.0 0.00 0.00 0.00 90 1004.9
20260505071839 69 185 12.0 15.0 0.00 0.00 0.00 90 1005.0
20260505071335 69 142 13.0 16.0 0.00 0.00 0.00 90 1005.2
20260505070834 70 190 10.0 15.0 0.00 0.00 0.00 89 1005.2
20260505070330 70 155 12.0 14.0 0.00 0.00 0.00 89 1005.3
20260505065825 70 211 8.0 11.0 0.00 0.00 0.00 89 1005.2
20260505065322 70 200 9.0 11.0 0.00 0.00 0.00 88 1005.4
20260505064819 70 189 5.0 8.0 0.00 0.00 0.00 88 1005.3
20260505064316 71 198 9.0 11.0 0.00 0.00 0.00 88 1005.7
20260505063814 71 172 9.0 11.0 0.00 0.00 0.00 87 1005.7
20260505063310 71 201 8.0 10.0 0.00 0.00 0.00 87 1005.2
20260505062807 71 194 10.0 13.0 0.00 0.00 0.00 87 1005.4
20260505062304 71 196 10.0 13.0 0.00 0.00 0.00 87 1005.9
20260505061801 71 208 10.0 11.0 0.00 0.00 0.00 86 1005.7
20260505061259 71 204 14.0 21.0 0.00 0.00 0.00 86 1005.5
20260505060756 71 206 11.0 13.0 0.00 0.00 0.00 86 1005.5
20260505060253 71 201 12.0 17.0 0.00 0.00 0.00 86 1005.5
20260505055749 71 204 14.0 16.0 0.00 0.00 0.00 85 1005.5
20260505055245 71 194 9.0 13.0 0.00 0.00 0.00 85 1005.7
20260505054742 71 198 12.0 15.0 0.00 0.00 0.00 85 1005.4
20260505054240 72 223 14.0 18.0 0.00 0.00 0.00 84 1005.4
20260505053738 72 207 11.0 16.0 0.00 0.00 0.00 84 1005.7
20260505053234 72 188 12.0 14.0 0.00 0.00 0.00 83 1005.8
20260505052731 72 184 12.0 18.0 0.00 0.00 0.00 83 1005.9
20260505052228 72 222 10.0 11.0 0.00 0.00 0.00 83 1005.8
20260505051725 72 154 10.0 13.0 0.00 0.00 0.00 82 1005.8
20260505051223 72 176 11.0 13.0 0.00 0.00 0.00 82 1005.7
20260505050721 72 189 13.0 17.0 0.00 0.00 0.00 82 1006.1
20260505050219 73 184 13.0 18.0 0.00 0.00 0.00 81 1005.8
20260505041649 73 214 9.0 13.0 0.00 0.00 0.00 80 1006.0
20260505041146 73 178 7.0 9.0 0.00 0.00 0.00 79 1006.3
20260505040643 73 169 5.0 9.0 0.00 0.00 0.00 80 1006.3
20260505040140 73 190 8.0 9.0 0.00 0.00 0.00 79 1006.2
20260505035636 73 179 13.0 17.0 0.00 0.00 0.00 79 1006.1
20260505035133 73 174 5.0 9.0 0.00 0.00 0.00 79 1006.0
20260505034629 73 178 6.0 8.0 0.00 0.00 0.00 79 1006.3
20260505034127 73 192 6.0 7.0 0.00 0.00 0.00 79 1006.0
20260505033623 73 171 5.0 7.0 0.00 0.00 0.00 79 1006.1
20260505033122 73 203 7.0 10.0 0.00 0.00 0.00 79 1006.2
20260505032619 73 158 9.0 10.0 0.00 0.00 0.00 79 1006.2
20260505032115 73 192 2.0 4.0 0.00 0.00 0.00 79 1006.1
20260505031613 73 190 9.0 14.0 0.00 0.00 0.00 79 1006.3
20260505031109 73 186 9.0 11.0 0.00 0.00 0.00 79 1006.4
20260505030606 73 201 5.0 8.0 0.00 0.00 0.00 79 1006.6
20260505025557 73 194 3.0 4.0 0.00 0.00 0.00 79 1006.1
20260505025057 73 202 8.0 9.0 0.00 0.00 0.00 78 1006.2
20260505024553 73 175 7.0 11.0 0.00 0.00 0.00 78 1005.9
20260505024051 73 190 9.0 10.0 0.00 0.00 0.00 78 1006.1
20260505023548 73 190 7.0 9.0 0.00 0.00 0.00 78 1005.8
20260505023045 73 201 6.0 8.0 0.00 0.00 0.00 78 1005.9
20260505022543 74 119 6.0 9.0 0.00 0.00 0.00 78 1005.9
20260505022040 74 126 8.0 11.0 0.00 0.00 0.00 77 1006.0
20260505021536 74 214 9.0 11.0 0.00 0.00 0.00 77 1005.9
20260505021032 74 184 6.0 8.0 0.00 0.00 0.00 77 1005.8
20260505020527 74 142 7.0 8.0 0.00 0.00 0.00 77 1005.9
20260505020024 74 139 5.0 7.0 0.00 0.00 0.00 77 1005.7
20260505015521 74 113 9.0 10.0 0.00 0.00 0.00 77 1005.9
20260505015018 74 186 5.0 6.0 0.00 0.00 0.00 76 1005.9
20260505014515 74 168 4.0 7.0 0.00 0.00 0.00 76 1005.8
20260505014012 74 150 4.0 6.0 0.00 0.00 0.00 76 1005.8
20260505013509 74 168 6.0 9.0 0.00 0.00 0.00 76 1006.0
20260505013007 74 159 4.0 6.0 0.00 0.00 0.00 75 1005.7
20260505012505 74 157 8.0 11.0 0.00 0.00 0.00 75 1006.0
20260505012001 74 188 4.0 8.0 0.00 0.00 0.00 76 1005.9
20260505011457 74 192 1.0 6.0 0.00 0.00 0.00 75 1005.9
20260505010954 75 195 6.0 7.0 0.00 0.00 0.00 75 1006.0
20260505010450 75 144 4.0 6.0 0.00 0.00 0.00 75 1005.8
20260505005946 75 175 3.0 3.0 0.00 0.00 0.00 74 1005.4
20260505005443 75 192 9.0 13.0 0.00 0.00 0.00 73 1006.1
20260505004941 75 197 7.0 9.0 0.00 0.00 0.00 73 1006.0
20260505004437 75 168 7.0 8.0 0.00 0.00 0.00 73 1006.0
20260505003934 75 198 6.0 11.0 0.00 0.00 0.00 72 1006.0
20260505003431 76 168 5.0 8.0 0.00 0.00 0.00 73 1006.1
20260505002927 76 129 8.0 13.0 0.00 0.00 0.00 72 1006.2
20260505002423 76 186 6.0 8.0 0.00 0.00 0.00 72 1006.2
20260505001922 76 202 10.0 11.0 0.00 0.00 0.00 72 1006.2
20260505001419 76 178 9.0 11.0 0.00 0.00 0.00 72 1006.3
20260505000916 76 191 6.0 9.0 0.00 0.00 0.00 72 1006.4
20260505000414 76 164 6.0 7.0 0.00 0.00 0.00 72 1006.5
20260504235911 77 169 1.0 2.0 0.00 0.00 0.00 71 1006.4
20260504235408 77 189 4.0 7.0 0.00 0.00 0.00 71 1006.3
20260504234904 77 188 5.0 7.0 0.00 0.00 0.00 70 1006.3
20260504234402 77 194 7.0 9.0 0.00 0.00 0.00 70 1006.3
20260504233858 77 154 8.0 9.0 0.00 0.00 0.00 70 1006.5
20260504233354 77 199 8.0 9.0 0.00 0.00 0.00 69 1006.5
20260504232850 77 188 9.0 10.0 0.00 0.00 0.00 69 1006.5
20260504232348 77 195 10.0 15.0 0.00 0.00 0.00 68 1006.6
20260504231844 78 158 12.0 16.0 0.00 0.00 0.00 69 1006.6
20260504231341 78 203 6.0 7.0 0.00 0.00 0.00 69 1006.8
20260504230837 77 158 11.0 15.0 0.00 0.00 0.00 69 1006.7
20260504230335 77 194 8.0 10.0 0.00 0.00 0.00 70 1006.7
20260504225834 77 152 8.0 10.0 0.00 0.00 0.00 69 1006.8
20260504225330 77 159 3.0 4.0 0.00 0.00 0.00 70 1006.9
20260504224827 78 162 7.0 8.0 0.00 0.00 0.00 69 1007.1
20260504224324 78 162 6.0 8.0 0.00 0.00 0.00 68 1007.0